PulseSat

PulseSat

COSMOS 2436 (723)

Last updated on Jan. 17, 2019, 2:58 a.m. UTC

1 32395U 07065C   19016.78646353  .00000006  00000-0  10000-3 0  9999
2 32395  64.8015 284.2396 0016734 357.7249 271.7941  2.13104302 86012
UTC
Height (km)
Latitude
Longitude
Inclination
Orbital Period

Next 30 passes for location: Hong Kong

Rise time Rise Azimuth (degrees) Set time Set Azimuth (degrees) Duration Max altitude (degrees)

No matching passes for this satellites

PulseSat

PulseSat is the new satellites software and hardware trackering solution by Pulsely.
Satellite Two Line Element Set source: US Air Force Space Command

Download PulseSat for iOS
© 2017 Pulsely Limited